Flagstaff, AZ

3:30 AM MST on August 19, 2017 (GMT -0700)
Flagstaff Pulliam

Weather History for KFLG - April, 2013

Change the Weather History Date:

Tuesday, April 9, 2013

  Actual Average Record
Temperature  
Mean Temperature 35 °F 42 °F  
Max Temperature 43 °F 56 °F 75 °F (1989)
Min Temperature 27 °F 27 °F 9 °F (1953)
Degree Days  
Heating Degree Days 30 23  
Month to date heating degree days 193 219  
Since 1 July heating degree days 5829 5926  
Cooling Degree Days 0 0  
Month to date cooling degree days 0 0  
Year to date cooling degree days 0 0  
Moisture  
Dew Point 23 °F    
Average Humidity 64    
Maximum Humidity 92    
Minimum Humidity 36    
Precipitation  
Precipitation 0.08 in 0.05 in 0.73 in (2011)
Month to date precipitation 0.12 0.43  
Year to date precipitation 5.00 6.76  
Snow  
Snow 1.20 in 0.20 in 13.20 in (2011)
Month to date snowfall 1.4 2.7  
Since 1 July snowfall 69.7 96.6  
Snow Depth 1.00 in    
Sea Level Pressure  
Sea Level Pressure 29.62 in    
Wind  
Wind Speed 7 mph (WNW)    
Max Wind Speed 20 mph    
Max Gust Speed 29 mph    
Visibility 8 miles    
Events Snow    
T = Trace of Precipitation, MM = Missing Value Source: NWS Daily Summary

Daily Weather History Graph

Daily Weather History Graph

Search for Another Location

Airport or City:

Trip Planner

Search our weather history database for the weather conditions in past years. The results will help you decide how hot, cold, wet, or windy it might be!

Date:

Astronomy

Apr. 09, 2013 Rise Set
Actual Time 6:02 AM MST 6:54 PM MST
Civil Twilight 5:36 AM MST 7:20 PM MST
Nautical Twilight 5:05 AM MST 7:51 PM MST
Astronomical Twilight 4:34 AM MST 8:22 PM MST
Moon 5:25 AM MST (4/9) 6:33 PM MST (4/9)
Length of Visible Light 13h 44m
Length of Day
12h 52m
Waning Crescent, 0% of the Moon is Illuminated
Apr 9
Waning Crescent
Apr 10
New
Apr 18
First Quarter
Apr 25
Full
May 2
Last Quarter

Hourly Weather History & Observations

Time (MST) Temp. Windchill Dew Point Humidity Pressure Visibility Wind Dir Wind Speed Gust Speed Precip Events Conditions
12:57 AM 32.0 °F - 27.0 °F 82% 29.41 in 5.0 mi Calm Calm - 0.00 in Snow Light Snow
1:47 AM 30.2 °F - 28.4 °F 93% 29.52 in 2.5 mi Calm Calm - 0.02 in Snow Light Snow
1:57 AM 30.9 °F - 28.0 °F 89% 29.44 in 2.5 mi Calm Calm - 0.02 in Snow Light Snow
2:17 AM 30.2 °F 25.4 °F 28.4 °F 93% 29.51 in 1.8 mi Variable 4.6 mph - 0.01 in Snow Light Snow
2:35 AM 30.2 °F - 28.4 °F 93% 29.52 in 0.8 mi Calm Calm - 0.02 in Snow Light Snow
2:57 AM 30.0 °F - 28.9 °F 96% 29.45 in 1.0 mi Calm Calm - 0.04 in Snow Light Snow
3:23 AM 30.2 °F 26.7 °F 28.4 °F 93% 29.52 in 2.0 mi Variable 3.5 mph - 0.02 in Snow Light Snow
3:31 AM 30.2 °F 26.7 °F 26.6 °F 86% 29.52 in 7.0 mi West 3.5 mph - 0.02 in Snow Light Snow
3:48 AM 30.2 °F - 26.6 °F 86% 29.53 in 6.0 mi Calm Calm - 0.02 in Snow Light Snow
3:57 AM 30.0 °F 24.1 °F 27.0 °F 88% 29.46 in 8.0 mi Variable 5.8 mph - 0.02 in   Overcast
4:57 AM 30.0 °F 22.4 °F 26.1 °F 85% 29.47 in 10.0 mi WNW 8.1 mph - 0.00 in   Overcast
5:57 AM 30.0 °F 24.1 °F 25.0 °F 82% 29.49 in 10.0 mi WNW 5.8 mph - N/A   Overcast
6:57 AM 30.0 °F 23.2 °F 25.0 °F 82% 29.53 in 8.0 mi Variable 6.9 mph - 0.00 in Snow Light Snow
7:57 AM 30.9 °F 23.5 °F 25.0 °F 79% 29.55 in 9.0 mi NW 8.1 mph - 0.00 in   Overcast
8:57 AM 32.0 °F 22.1 °F 24.1 °F 73% 29.57 in 10.0 mi WNW 13.8 mph 20.7 mph N/A   Overcast
9:57 AM 35.1 °F 26.9 °F 26.1 °F 70% 29.60 in 10.0 mi NW 11.5 mph 18.4 mph N/A   Mostly Cloudy
10:47 AM 35.6 °F 28.6 °F 24.8 °F 65% 29.69 in 10.0 mi WNW 9.2 mph 21.9 mph N/A   Mostly Cloudy
10:57 AM 37.0 °F 30.4 °F 24.1 °F 59% 29.61 in 10.0 mi NW 9.2 mph 19.6 mph N/A   Mostly Cloudy
11:28 AM 39.2 °F 33.0 °F 24.8 °F 56% 29.70 in 10.0 mi West 9.2 mph - N/A   Mostly Cloudy
11:57 AM 39.0 °F 34.8 °F 23.0 °F 53% 29.61 in 10.0 mi Variable 5.8 mph 16.1 mph N/A   Mostly Cloudy
12:57 PM 41.0 °F 35.8 °F 23.0 °F 49% 29.62 in 10.0 mi West 8.1 mph 17.3 mph N/A   Overcast
1:57 PM 41.0 °F 36.4 °F 19.0 °F 41% 29.65 in 10.0 mi Variable 6.9 mph 19.6 mph N/A   Mostly Cloudy
2:57 PM 42.1 °F 34.9 °F 18.0 °F 38% 29.67 in 10.0 mi West 13.8 mph 28.8 mph N/A   Overcast
3:57 PM 37.9 °F 30.5 °F 16.0 °F 41% 29.72 in 10.0 mi WNW 11.5 mph 23.0 mph N/A   Overcast
4:57 PM 39.9 °F 33.4 °F 18.0 °F 41% 29.73 in 10.0 mi West 10.4 mph 23.0 mph N/A   Mostly Cloudy
5:57 PM 35.1 °F 26.9 °F 18.0 °F 50% 29.78 in 10.0 mi NW 11.5 mph 21.9 mph N/A   Overcast
6:57 PM 32.0 °F 25.6 °F 16.0 °F 52% 29.81 in 10.0 mi NW 6.9 mph 17.3 mph N/A   Clear
7:57 PM 30.9 °F 24.3 °F 16.0 °F 54% 29.83 in 10.0 mi WNW 6.9 mph - N/A   Clear
8:57 PM 30.9 °F 25.2 °F 16.0 °F 54% 29.85 in 10.0 mi NNW 5.8 mph - N/A   Partly Cloudy
9:57 PM 30.0 °F - 18.0 °F 61% 29.86 in 10.0 mi Calm Calm - N/A   Mostly Cloudy
10:57 PM 28.9 °F - 19.9 °F 69% 29.87 in 10.0 mi Calm Calm - N/A   Overcast
11:57 PM 28.9 °F - 21.0 °F 72% 29.87 in 10.0 mi Calm Calm - N/A   Overcast